Lexington Weather

Lexington, Massachusetts, USA

54°F
12/10/2019 4:44pm 
  • Lexington Conditions: Light rain, Overcast
  • Temperature: 54.0°F / 12.2°CColder 0.3°F than last hour.
  • Dew Point: 52.5°FDecreased 0.2°Fsince last hour.
  • Relative Humidity: 95%Increased 1.0% since last hour.
  • Wind: Wind from WSW WSW 4 mph, 10-min avg: 3 mph, gust: 8 mph
  • Barometer: 29.71 inRising 0.03  inHg/hr Rising Slowly
  • Visibility: 10 miles
  • Rain Today: 0.05 in
  •   

Regional Weather Roundup
for Boston / Norton, MA

        
000
ASUS41 KBOX 100710
RWRBOX

REGIONAL WEATHER ROUNDUP
NATIONAL WEATHER SERVICE BOSTON/NORTON MA
200 AM EST TUE DEC 10 2019

NOTE:  "FAIR" INDICATES FEW OR NO CLOUDS BELOW 12,000 FEET WITH NO 
SIGNIFICANT WEATHER AND/OR OBSTRUCTIONS TO VISIBILITY.

MAZALL-100800-
EASTERN MASSACHUSETTS
  
CITY           SKY/WX    TMP DP  RH WIND       PRES   REMARKS
BOSTON         LGT RAIN  59  53  80 SW18      29.68R                  
BEVERLY        CLOUDY    58  53  84 SW15      29.65S                  
LAWRENCE       LGT RAIN  54  51  90 SW14      29.67R                  
BEDFORD        LGT RAIN  55  51  86 SW12      29.66R                  
BLUE HILL        N/A     55  53  93 SW22G35   29.67S                  
NORWOOD        LGT RAIN  60  53  77 SW12      29.69R                  
MARSHFIELD     LGT RAIN  59  59 100 SW15G23   29.71R                  
PLYMOUTH       LGT RAIN  58  56  93 SW18G29   29.73R                  
TAUNTON        LGT RAIN  57  54  89 SW9G25    29.73S                  
NEW BEDFORD    LGT RAIN  57  32  38 SW18G26   29.75R                  
$$

MAZALL-100800-
CAPE COD AND THE ISLANDS
  
CITY           SKY/WX    TMP DP  RH WIND       PRES   REMARKS
FALMOUTH       LGT RAIN  57  57 100 SW28G40   29.75S                  
HYANNIS        LGT RAIN  57  54  89 SW25G35   29.76R FOG              
CHATHAM        RAIN      52  52 100 SW13G26   29.79R FOG              
PROVINCETOWN   LGT RAIN  54  54 100 SW26G36   29.74R                  
NANTUCKET      LGT RAIN  54  52  93 S20       29.81R                  
MARTHAS VNYRD  LGT RAIN  56  54  93 SW20G28   29.79R FOG              
$$
 
MAZALL-100800-
CENTRAL AND WESTERN MASSACHUSETTS
  
CITY           SKY/WX    TMP DP  RH WIND       PRES   REMARKS
WORCESTER      CLOUDY    50  49  96 SW17G24   29.68R                  
FITCHBURG      NOT AVBL                                               
ORANGE         CLOUDY    50  46  86 S16       29.65F                  
SPRINGFIELD    CLOUDY    47  47 100 S12       29.67S FOG              
WESTFIELD      CLOUDY    50  48  93 S9        29.67S                  
NORTH ADAMS    CLOUDY    49  44  83 W8        29.65R                  
PITTSFIELD     CLOUDY    48  45  89 S9G18     29.64F                  
$$
 
RIZALL-100800-
RHODE ISLAND
  
CITY           SKY/WX    TMP DP  RH WIND       PRES   REMARKS
PROVIDENCE     RAIN      57  55  93 SW16G23   29.72F                  
NEWPORT        LGT RAIN  56  53  90 SW15G23   29.75S FOG              
BLOCK ISLAND   LGT RAIN  54  53  97 SW23      29.77S FOG              
SMITHFIELD     LGT RAIN  55  54  96 SW12G21   29.71S                  
WESTERLY       LGT RAIN  56  52  86 SW7       29.76S FOG              
$$
 
CTZALL-100800-
CONNECTICUT
  
CITY           SKY/WX    TMP DP  RH WIND       PRES   REMARKS
BRADLEY INTL   CLOUDY    47  46  97 S7        29.68S                  
HARTFORD       CLOUDY    54  51  90 VRB7      29.70F                  
BRIDGEPORT     CLOUDY    50  48  93 SW7       29.73S                  
DANBURY        CLOUDY    53  50  89 SW13G20   29.73R                  
GROTON         LGT RAIN  52  52 100 SW12      29.75R                  
NEW HAVEN      CLOUDY    53  50  89 SW6       29.73S                  
CHESTER        CLOUDY    54  54 100 SW9G18    29.73S                  
MERIDEN        CLOUDY    54  51  90 S6G18     29.71F                  
WILLIMANTIC    LGT RAIN  54  53  97 SW9       29.72F                  
OXFORD         CLOUDY    52  51  97 SW10G20   29.72S                  
$$

MEZ002-015-021-024-NHZ003-005-008-011-012-014-VTZ005-008-100800-
NORTHERN NEW ENGLAND
  
CITY           SKY/WX    TMP DP  RH WIND       PRES   REMARKS
PORTLAND ME    CLOUDY    54  51  90 SW7       29.60S                  
BANGOR ME      LGT RAIN  54  53  97 S10G21    29.54F                  
CONCORD NH     LGT RAIN  49  47  93 SW9       29.61S                  
MANCHESTER NH  CLOUDY    51  50  96 S12       29.62S                  
NASHUA NH      CLOUDY    52  52 100 VRB5      29.65R                  
PORTSMOUTH NH  CLOUDY    52  52 100 SW12      29.60R                  
JAFFREY NH     LGT RAIN  49  47  93 S9G17     29.64S                  
KEENE NH       LGT RAIN  46  45  96 S5        29.63F                  
BURLINGTON VT  FAIR      49  44  83 S18G28    29.50S                  
MT. WASHINGTON LGT RAIN  34  34 100 W59         N/A  VSB 0   WCI  16  
$$

NYZ052-076-100800-
EASTERN NEW YORK
  
CITY           SKY/WX    TMP DP  RH WIND       PRES   REMARKS
ALBANY         LGT RAIN  47  43  86 S15G21    29.63S                  
NEW YORK CITY  CLOUDY    57  52  83 SW16      29.74R                  
$$
 
ANZALL-100800-
MARINE OBSERVATIONS
  
STATION/POSITION TIME  TEMP    WIND        PRES    VSBY  WAVE
                       AIR SEA DIR/SP/G                  HT/PER
                 (UTC) (F)     (DEG/KT/KT) (MB)    (MI)  (FT/S)
BOSTON BUOY      0650   55 48  200/ 19/ 23 1004.2R         4/ 5
BUZZARDS BAY     0600   54     220/ 26/ 29 1007.6R
NANTUCKET SOUND  0620                      1008.3
MASS BAY-STELLWA 0604   52 46  230/ 17/ 19 1002.5S  1 7/8  5/ 5
ISLE OF SHOALS   0600   53     210/ 22/ 23 1002.6F
S OF BLOCK IS    0700      53                N/A          13/10
$$

......................KEY.........................
  SKY/WX - SKY CONDITION/PRESENT WEATHER
  TMP    - TEMPERATURE IN FAHRENHEIT
  DWPT   - DEWPOINT IN FAHRENHEIT
  RH     - RELATIVE HUMIDITY IN PERCENT
  WIND   - DIRECTION AND SPEED IN MPH
  PRES   - MEAN SEA LEVEL PRESSURE IN INCHES OF HG
  WCI    - WIND CHILL INDEX
  VSB    - VISIBILITY IN MILES
  HX     - HEAT INDEX
  TC     - TEMPERATURE IN CELSIUS
  VRB    - VARIABLE WIND DIRECTION
  N/A    - NOT AVAILABLE
  
      

Other recent Regional Weather Roundups

Tue Dec 10, 4:10pm

Tue Dec 10, 4:01pm

Tue Dec 10, 3:10pm

Tue Dec 10, 3:01pm

Tue Dec 10, 2:10pm

Tue Dec 10, 2:01pm

Tue Dec 10, 1:10pm

Tue Dec 10, 1:00pm

Tue Dec 10, 12:10pm

Tue Dec 10, 12:00pm

Tue Dec 10, 11:10am

Tue Dec 10, 11:00am

Tue Dec 10, 10:10am

Tue Dec 10, 10:00am

Tue Dec 10, 9:10am

Tue Dec 10, 9:01am

Tue Dec 10, 8:10am

Tue Dec 10, 8:00am

Tue Dec 10, 7:10am

Tue Dec 10, 7:00am

Tue Dec 10, 6:10am

Tue Dec 10, 6:00am

Tue Dec 10, 5:10am

Tue Dec 10, 5:00am

Tue Dec 10, 4:10am

Tue Dec 10, 4:00am

Tue Dec 10, 3:10am

Tue Dec 10, 3:00am

Tue Dec 10, 2:01am

Tue Dec 10, 1:10am

Tue Dec 10, 1:00am

Tue Dec 10, 12:10am

Tue Dec 10, 12:01am

Mon Dec 9, 11:10pm

Mon Dec 9, 11:01pm

Mon Dec 9, 10:10pm

Mon Dec 9, 10:00pm

Mon Dec 9, 9:10pm

Mon Dec 9, 9:01pm

Mon Dec 9, 8:10pm

Mon Dec 9, 8:01pm

Mon Dec 9, 7:10pm

Mon Dec 9, 7:00pm

Mon Dec 9, 6:10pm

Mon Dec 9, 6:00pm

Mon Dec 9, 5:10pm

Mon Dec 9, 5:01pm

Mon Dec 9, 4:10pm

Mon Dec 9, 4:01pm

Mon Dec 9, 3:10pm

Mon Dec 9, 3:01pm

Mon Dec 9, 2:10pm

Mon Dec 9, 2:00pm

Mon Dec 9, 1:10pm

Mon Dec 9, 1:00pm

Mon Dec 9, 12:10pm

Mon Dec 9, 12:00pm

Mon Dec 9, 11:10am

Mon Dec 9, 11:00am

Mon Dec 9, 10:10am

Mon Dec 9, 10:00am

Mon Dec 9, 9:10am

Mon Dec 9, 9:00am

Mon Dec 9, 8:10am

Mon Dec 9, 8:00am

Mon Dec 9, 7:10am

Mon Dec 9, 7:00am

Mon Dec 9, 6:10am

Mon Dec 9, 6:00am

Mon Dec 9, 5:10am

Mon Dec 9, 5:00am

Mon Dec 9, 4:10am

Mon Dec 9, 4:00am

Mon Dec 9, 3:10am

Mon Dec 9, 3:00am

Mon Dec 9, 2:10am

Mon Dec 9, 2:00am

Mon Dec 9, 1:10am

Mon Dec 9, 1:00am

Mon Dec 9, 12:10am

Mon Dec 9, 12:00am

Sun Dec 8, 11:10pm

Sun Dec 8, 11:00pm

Sun Dec 8, 10:10pm

Sun Dec 8, 10:01pm

Sun Dec 8, 9:10pm

Sun Dec 8, 9:01pm

Sun Dec 8, 8:10pm

Sun Dec 8, 8:00pm

Sun Dec 8, 7:10pm

Sun Dec 8, 7:00pm

Sun Dec 8, 6:10pm

Sun Dec 8, 6:01pm

Sun Dec 8, 5:10pm

Sun Dec 8, 5:00pm

Sun Dec 8, 4:10pm

Sun Dec 8, 4:01pm

Sun Dec 8, 3:10pm

Sun Dec 8, 3:01pm

Sun Dec 8, 2:10pm

Sun Dec 8, 2:01pm

Sun Dec 8, 1:10pm

Sun Dec 8, 1:00pm

Sun Dec 8, 12:10pm

Sun Dec 8, 12:01pm

Sun Dec 8, 11:10am

Sun Dec 8, 11:00am

Sun Dec 8, 10:10am

Sun Dec 8, 10:01am

Sun Dec 8, 9:10am

Sun Dec 8, 9:00am

Sun Dec 8, 8:10am

Sun Dec 8, 8:00am

Sun Dec 8, 7:10am

Sun Dec 8, 7:00am

Sun Dec 8, 6:10am

Sun Dec 8, 6:00am

Sun Dec 8, 5:10am

Sun Dec 8, 5:00am

Sun Dec 8, 4:10am

Sun Dec 8, 4:00am

Sun Dec 8, 3:10am

Sun Dec 8, 3:00am

Sun Dec 8, 2:10am

Sun Dec 8, 2:00am

Sun Dec 8, 1:10am

Sun Dec 8, 1:00am

Sun Dec 8, 12:10am

Sun Dec 8, 12:01am

Sat Dec 7, 11:10pm

Sat Dec 7, 11:00pm

Sat Dec 7, 10:10pm

Sat Dec 7, 10:00pm

Sat Dec 7, 9:10pm

Sat Dec 7, 9:00pm

Sat Dec 7, 8:10pm

Sat Dec 7, 8:00pm

Sat Dec 7, 7:10pm

Sat Dec 7, 7:00pm

Sat Dec 7, 6:10pm

Sat Dec 7, 6:00pm

Sat Dec 7, 5:10pm

Sat Dec 7, 5:00pm

Meta data:

ID: 70693bb0-71f8-41cb-b8b4-b0be761085f6
Link: https://api.weather.gov/products/70693bb0-71f8-41cb-b8b4-b0be761085f6